DECAYED

STARLINK-2441, 48335 (Decayed)

Orbit data source: Space-Track

STARLINK-2441, 48335 was a payload satellite owned by SpaceX/Seattle (US) in LEO that was launched on Thu, 29 Apr 2021 UTC via an FALCON 9 launch vehicle from the Air Force Eastern Test Range (AFETR). Payload-class satellites include a variety of spacecraft equipped with specific instruments for various scientific and technological missions. These include communications satellites like Starlink; space stations such as the ISS; scientific satellites like the Hubble; Earth observation satellites from companies like Planet Labs, Umbra, and HawkEye 360; GPS; miniature CubeSats for education and research; and military/defense satellites.

Not visible in the next 10 days
Identifier
48335, 2021-036BM
Orbit
Decayed
Country
Flag of USUS
Related business
Manufacturer
SpaceX/Seattle
Mission
Decayed Commercial Communications
Bus & Motor
STARLINK, Unknown motor
Mass
260 kg wet, ~248 kg dry
Launch date (UTC)
2021-04-29 (5 years ago)
Launch vehicle
FALCON 9
Launch site
Air Force Eastern Test Range (AFETR)
Object type
Payload
Rocket body
Debris
Shape & HBR
Box + 1 Pan, 10.1 m
Radar Cross Section
13.562 m², Large (>1 m²)

Expand to show TLE details & history
Last TLE update: 1 year ago

TLE from 1 year ago
0 STARLINK-2441
1 48335U 21036BM  25007.67530763  .42250138  12525-4  22154-2 0  9996
2 48335  53.0049 194.1368 0006100 356.8462  51.2082 16.42418685204693
Epoch: 2025-01-07T16:12Z
TLE epoch observation values (Epoch: 2025-01-07T16:12:26.579Z)
Latitude
36.60528°
Longitude
-122.64433°
Altitude
159.742 km
Speed
7.817 km/s
True Right ascension
15h 11m 46s
True Declination
36° 25' 33"
Sunlit
Object was in daylight at epoch
Visualization orbit readout
Latitude
Unknown
Longitude
Unknown
Altitude
Unknown
Speed
Unknown
Apparent Right ascension
Unknown
Apparent Declination
Unknown
Sunlit
N/A
Visualization observer readout
Local Sidereal Time
21:39:15
Azimuth
Unknown
Elevation
Unknown
Doppler factor
Unknown
Orbital elements
Apogee altitude
163.659 km
Perigee altitude
155.683 km
Semi-major axis
6,537.808 km
Eccentricity
0.00061
Inclination
53.0049°
RAAN
194.1368°
Arg. of periapsis
356.8462°
True anomaly
51.26271°
Mean anomaly
51.2082°
Eccentric anomaly
51.23545°
Mean motion
4.10577 °/min
Orbital period
87.68 mins
BSTAR
0.0022154
Loading maneuver chart data...
Computing Atmospheric mass density...

Documentation

Showing up to 5 results
|